This is the latest recevied weather packets stored in our database for station/object SP8MDH-4. If no packets are shown the sender has not sent any weather packets the latest 10 day(s).
| Time | Temp. | Humidity | Pressure | Rain* | Wind** | Luminosity | Snow |
|---|---|---|---|---|---|---|---|
| 1777563296 | 20.56° C | 24% | 1027 hPa | - | - | - | - |
| 1777561796 | 20.56° C | 24% | 1027 hPa | - | - | - | - |
| 1777560296 | 20.56° C | 24% | 1027 hPa | - | - | - | - |
| 1777558796 | 20° C | 24% | 1027.2 hPa | - | - | - | - |
| 1777557296 | 20° C | 24% | 1027.4 hPa | - | - | - | - |
| 1777555796 | 20° C | 24% | 1027.7 hPa | - | - | - | - |
| 1777554296 | 19.44° C | 24% | 1027.8 hPa | - | - | - | - |
| 1777552796 | 19.44° C | 24% | 1028 hPa | - | - | - | - |
| 1777551296 | 19.44° C | 24% | 1028.3 hPa | - | - | - | - |
| 1777549796 | 19.44° C | 24% | 1028.5 hPa | - | - | - | - |
| 1777548296 | 18.89° C | 24% | 1028.7 hPa | - | - | - | - |
| 1777546796 | 18.89° C | 24% | 1029 hPa | - | - | - | - |
| 1777545296 | 18.89° C | 24% | 1029.2 hPa | - | - | - | - |
| 1777543796 | 18.33° C | 24% | 1029.5 hPa | - | - | - | - |
| 1777542296 | 18.33° C | 24% | 1029.7 hPa | - | - | - | - |
| 1777540796 | 18.33° C | 24% | 1029.8 hPa | - | - | - | - |
| 1777539296 | 17.78° C | 24% | 1029.9 hPa | - | - | - | - |
| 1777537796 | 17.22° C | 24% | 1030.1 hPa | - | - | - | - |
| 1777536296 | 17.22° C | 24% | 1030.2 hPa | - | - | - | - |
| 1777534796 | 17.78° C | 24% | 1030.2 hPa | - | - | - | - |
| 1777533295 | 17.22° C | 24% | 1030.4 hPa | - | - | - | - |
| 1777531795 | 17.22° C | 23% | 1030.5 hPa | - | - | - | - |
| 1777530295 | 16.67° C | 23% | 1030.6 hPa | - | - | - | - |
| 1777528795 | 16.67° C | 23% | 1030.6 hPa | - | - | - | - |
| 1777527295 | 16.67° C | 23% | 1030.8 hPa | - | - | - | - |
* Rain since midnight (hover to see other rain measurements)
** Current wind speed in m/s (hover to see current wind gust speed)